Location: Henau
(47.4548°N, 9.1164°E)
Time: 07:00:35
(UTC+00:00)

Cosmos 2360 Rocket - Pass Details

Date: 03 March 2021
Orbit: 832 x 846 km, 71.0° (Epoch: 11 April)

Event Time Altitude Azimuth Distance (km) Brightness Sun altitude
Rises 20:22:15 0° 250° (WSW) 3,387 5.9 -32.0°
Reaches altitude 10° 20:25:13 10° 264° (W) 2,459 5.2 -32.5°
Maximum altitude 20:29:36 23° 316° (NW) 1,737 4.4 -33.1°
Drops below altitude 10° 20:34:01 10° 7° (N) 2,475 4.9 -33.7°
Sets 20:37:02 0° 22° (NNE) 3,416 5.5 -34.2°
